Regional Weather Roundup
Issued by NWS Portland, ME

Home | Current Version | Previous Version | Text Only | Print | Product List | Glossary On
Versions: 1 2 3 4 5 6 7 8 9 10 11 12 13 14 15 16 17 18 19 20 21 22 23 24 25 26 27 28 29 30 31 32 33 34 35 36 37 38 39 40 41 42 43 44 45 46 47 48 49 50
000
ASUS41 KGYX 211105
RWRGYX
WEATHER ROUNDUP FOR MAINE AND NEW HAMPSHIRE
NATIONAL WEATHER SERVICE GRAY ME
700 AM EDT SAT OCT 21 2017

MEZ002-005-006-010-012-015-018-020-021-024-026-027-029-211200-
MAINE

CITY           SKY/WX    TMP DP  RH WIND       PRES   REMARKS
PORTLAND       CLEAR     44  37  76 CALM      30.21R
SANFORD        CLEAR     43  35  73 W5        30.22R
BAR HARBOR     CLEAR     42  37  82 CALM      30.20R
WISCASSET      CLEAR     40  37  89 CALM      30.22R
ROCKLAND       PTCLDY    39  36  89 W3        30.21R
FRYEBURG       MOCLDY    44  40  85 CALM      30.19S
LEWISTONAUBURN CLEAR     40  37  89 CALM      30.21R
AUGUSTA        PTCLDY    51  35  54 SW3       30.20R
WATERVILLE     PTCLDY    42  39  89 CALM      30.17R
BANGOR         CLOUDY    39  35  86 CALM      30.20R
GREENVILLE       N/A     42  36  79 N5        30.17R
MILLINOCKET    CLOUDY    41  35  79 NW3       30.20R
HOULTON        CLEAR     34  32  92 CALM      30.16R
PRESQUE ISLE   CLEAR     28  28 100 CALM      30.19R
FRENCHVILLE    CLEAR     34  28  79 NW9       30.16R
CARIBOU        CLEAR     36  31  82 NW5       30.17R
$$

NHZ002-005-008-009-011-012-014-211200-
NEW HAMPSHIRE

CITY           SKY/WX    TMP DP  RH WIND       PRES   REMARKS
PORTSMOUTH     PTCLDY    50  37  62 CALM      30.21R
ROCHESTER      CLEAR     55  32  41 VRB5      30.21S
NASHUA         CLEAR     40  37  89 NW3       30.25R
MANCHESTER     PTCLDY    44  39  82 CALM      30.23R
CONCORD        CLEAR     38  34  85 CALM      30.24R
LACONIA        PTCLDY    48  43  82 W8        30.23R
PLYMOUTH       FAIR      36  35  96 CALM      30.24R
BERLIN         CLEAR     31  29  92 CALM      30.23R
WHITEFIELD     CLEAR     30  28  92 CALM      30.24S
JAFFREY        CLEAR     40  38  93 S6        30.26R
KEENE          CLEAR     34  33  96 S3        30.28R
LEBANON        CLEAR     36  34  92 CALM      30.26R
MT WASHINGTON  NOT AVBL
$$

VTZ005-007-008-211200-
VERMONT

CITY           SKY/WX    TMP DP  RH WIND       PRES   REMARKS
ST JOHNSBURY     N/A     35  34  96 MISG      30.24R
BURLINGTON     PTCLDY    44  38  79 CALM      30.22R
$$

MAZ007-012-024-CTZ003-RIZ002-NYZ038-NYZ072-211200-
SOUTHERN NEW ENGLAND AND NY

CITY           SKY/WX    TMP DP  RH WIND       PRES   REMARKS
BOSTON         CLEAR     56  37  49 SW3       30.24R
WORCESTER      CLEAR     53  32  44 W13       30.26R
NANTUCKET      CLEAR     47  47 100 N3        30.26R
PROVIDENCE     PTCLDY    49  42  77 CALM      30.27R
HARTFORD       PTCLDY    44  39  82 CALM      30.28R
ALBANY         PTCLDY    42  37  82 CALM      30.30R
NEW YORK CITY  PTCLDY    59  43  55 CALM      30.28R
$$

ANZ081-ANZ082-ANZ150-NHZ014-MEZ023>029-211200-
COASTAL MARINE OBSERVATIONS

STATION/POSITION TIME  TEMP    WIND        PRES    WAVE
                       AIR SEA DIR/SP/G            HT/PER
                 (UTC) (F)     (DEG/KT/KT) (MB)    (FT/S)
MOUNT DESERT ROC 1100   54     250/  7/  7 1022.9R
MATINICUS ROCK   1000   55     270/  8/  8 1021.9R
ISLE OF SHOALS   1000   55     280/  6/  6 1022.9R
JEFFREYS LEDGE   1006      58                N/A     2/ 7
GEORGES BANK BUO 0950   59 58              1021.0    4/ 7
$$

.............KEY..............
   WCI - WIND CHILL
   TC  - TEMPERATURE IN CELSIUS
   VSB - VISIBILITY IN MILES
   HX  - HEAT INDEX
   FAIR- INDICATES FEW OR NO CLOUDS BELOW 12,000 FT, WITH NO
         SIGNIFICANT WEATHER AND/OR OBSTRUCTIONS TO VISIBILITY.






USA.gov is the U.S. government's official web portal to all federal, state and local government web resources and services.